Lid_Strength_Index
7 11 13 11 11 11 12 13 13 12 10 10 11 12 11 9 9 9 9 8 8 8 7 6 6 6 6 3 2 2 3 4 4 1 3 2 2 2 2 2 2 3 3 4
9 11 9 9 10 11 11 13 13 11 9 9 11 11 10 9 9 8 8 7 7 7 7 6 6 7 6 3 2 2 2 2 1 1 1 1 1 2 2 2 2 2 2 2
11 9 7 9 10 11 12 13 13 13 10 9 10 12 11 9 8 7 6 6 7 7 7 7 6 7 3 3 3 2 2 3 2 2 3 3 2 1 2 2 2 1 1 0
9 7 8 9 11 11 13 10 11 11 11 14 10 17 12 10 8 7 7 7 6 6 5 6 5 4 4 3 2 2 2 2 2 2 3 4 4 4 3 2 2 2 1 0
10 9 9 9 10 9 12 10 10 10 12 13 12 15 14 10 10 9 7 6 6 6 5 5 4 5 3 3 2 3 3 3 3 3 4 4 3 3 3 2 2 1 1 1
8 6 7 8 7 8 9 9 9 10 12 16 14 14 15 12 10 8 7 6 6 6 4 4 4 4 4 4 3 2 2 3 4 4 3 3 3 2 2 2 2 2 1 1
10 9 7 7 9 8 9 12 17 16 16 18 12 14 14 10 8 7 7 7 6 6 5 5 5 5 4 4 4 3 2 3 2 3 3 3 4 4 4 3 2 2 2 2
15 16 9 7 9 11 12 12 15 19 19 16 11 14 13 8 6 6 5 6 6 6 6 5 5 5 4 3 3 4 3 3 3 4 3 2 2 2 2 2 5 2 2 1
15 15 8 7 7 8 11 13 11 13 13 16 14 12 9 7 7 7 7 6 6 6 6 5 5 4 4 3 3 3 3 3 3 2 2 2 2 2 3 1 2 2 2 3
10 15 9 8 7 7 9 9 13 13 19 20 15 14 15 11 10 7 7 7 6 6 5 5 5 4 3 4 4 4 4 3 2 2 3 2 2 2 2 3 4 4 5 5
9 13 13 10 10 11 10 11 11 12 13 18 19 18 10 11 10 9 8 8 7 7 6 5 5 4 3 3 4 4 4 3 3 3 3 3 2 3 3 4 4 2 3 3
9 12 16 14 10 8 10 10 11 16 17 15 16 17 9 9 8 8 8 7 6 5 5 6 5 4 4 4 4 5 5 4 3 3 4 4 4 3 3 3 3 2 1 1
9 14 18 16 13 10 12 10 10 11 13 16 19 18 9 8 9 8 8 7 6 6 5 5 5 5 4 4 3 4 5 5 4 3 2 4 4 4 3 3 3 2 2 2
9 13 15 18 16 13 13 12 12 13 17 16 16 15 11 10 9 8 8 7 6 6 6 5 5 5 4 4 4 4 4 4 4 3 3 4 4 3 3 3 3 3 3 4
10 15 13 13 12 12 12 13 13 14 13 16 14 14 12 10 9 8 7 6 7 6 6 5 5 5 5 5 5 5 5 5 4 4 5 4 4 5 5 5 4 4 3 3
10 15 13 14 12 12 13 12 12 12 12 12 12 13 9 8 7 7 7 6 6 6 5 5 5 5 6 6 6 5 5 5 5 5 5 4 4 4 5 4 5 5 4 4
12 13 14 17 13 13 16 12 11 11 11 12 15 12 9 9 8 8 7 7 7 6 5 5 5 5 5 6 6 6 5 5 4 4 3 3 4 4 4 5 5 5 4 4
11 12 12 15 14 19 12 8 9 10 9 9 10 9 8 7 7 7 6 6 6 5 5 5 5 6 6 5 5 5 4 4 4 4 4 4 4 5 5 5 5 5 5 5
9 11 15 17 17 13 11 10 10 11 12 8 9 8 7 7 7 8 6 5 6 5 5 5 5 5 5 4 4 4 4 4 4 4 4 4 5 5 5 6 6 6 6 6
8 9 14 15 19 20 13 8 6 7 15 8 8 8 8 8 12 10 6 5 6 5 5 6 5 5 5 4 4 4 5 5 5 5 5 5 5 5 6 6 6 6 6 6
14 14 16 16 17 14 9 7 6 15 15 8 7 7 8 9 8 6 5 5 5 5 5 5 5 6 5 5 6 6 6 6 5 5 5 5 6 7 7 7 8 8 8 8
14 16 16 15 17 18 8 9 13 10 7 7 7 7 8 7 6 6 6 6 6 6 7 6 7 6 6 6 6 6 7 6 6 6 7 8 9 8 8 10 10 10 10 10
15 12 14 13 14 9 7 8 7 6 7 7 7 7 7 7 7 7 8 7 7 8 8 7 7 8 7 7 7 8 9 8 8 8 9 9 10 10 10 11 11 11 11 11
10 8 11 11 10 9 7 6 6 6 7 6 6 6 6 8 8 9 9 9 9 9 8 8 9 9 9 8 8 9 9 9 9 10 11 11 11 11 12 11 11 10 11 11
10 9 10 11 9 7 6 6 6 6 6 7 7 8 9 9 9 9 9 9 9 9 9 9 10 10 10 9 10 10 10 11 12 12 13 13 13 13 12 11 11 12 12 12
8 10 12 13 8 8 7 7 6 7 8 8 9 9 8 8 9 9 9 9 10 10 10 11 11 11 11 11 11 11 11 12 13 14 13 14 13 13 13 14 13 12 12 12